Location: Cahas Mountain Overlook
(37.0833°N, 80.1000°W)
Time: 08:42:01
(UTC-05:00)

S-56A Canister/Altair - Pass Details

Date: 04 December 2023
Orbit: 640 x 2488 km, 38.9° (Epoch: 25 February)

Event Time Altitude Azimuth Distance (km) Brightness Sun altitude
Rises 12:54:18 0° 256° (WSW) 3,063 10.9 29.8°
Reaches altitude 10° 12:56:43 10° 257° (WSW) 2,064 10.2 29.7°
Maximum altitude 13:01:15 88° 344° (NNW) 642 7.6 29.5°
Drops below altitude 10° 13:05:58 10° 77° (ENE) 2,143 9.7 29.2°
Sets 13:08:31 0° 78° (ENE) 3,193 10.5 29.1°
